Weather History for KRIL - June, 2013

Change the Weather History Date:

Wednesday, June 5, 2013

  Actual Average Record
Temperature  
Mean Temperature 65 °F 63 °F  
Max Temperature 81 °F 81 °F 96 °F (1977)
Min Temperature 48 °F 44 °F 28 °F (1937)
Degree Days  
Heating Degree Days 0 4  
Month to date heating degree days 12 21  
Since 1 June heating degree days 12 21  
Since 1 July heating degree days 6693 6587  
Cooling Degree Days 0 2  
Month to date cooling degree days 3 6  
Year to date cooling degree days 10 13  
Since 1 June cooling degree days 3 6  
Growing Degree Days 14 (Base 50)    
Moisture  
Dew Point 29 °F    
Average Humidity 34    
Maximum Humidity 56    
Minimum Humidity 12    
Precipitation  
Precipitation 0.00 in 0.04 in 0.47 in (1984)
Month to date precipitation 0.00 0.21  
Year to date precipitation 3.99 5.63  
Sea Level Pressure  
Sea Level Pressure 29.89 in    
Wind  
Wind Speed 5 mph (North)    
Max Wind Speed 20 mph    
Max Gust Speed 25 mph    
Visibility 10 miles    
Events      
T = Trace of Precipitation, MM = Missing Value Source: NWS Daily Summary

Daily Weather History Graph

Daily Weather History Graph

Search for Another Location

Airport or City:

Trip Planner

Search our weather history database for the weather conditions in past years. The results will help you decide how hot, cold, wet, or windy it might be!

Date:

Astronomy

Jun. 05, 2013 Rise Set
Actual Time 5:44 AM MDT 8:35 PM MDT
Civil Twilight 5:12 AM MDT 9:07 PM MDT
Nautical Twilight 4:31 AM MDT 9:47 PM MDT
Astronomical Twilight 3:45 AM MDT 10:34 PM MDT
Moon 3:49 AM MDT (6/5) 6:04 PM MDT (6/5)
Length of Visible Light 15h 55m
Length of Day
14h 51m
Waning Crescent, 8% of the Moon is Illuminated
Jun 5
Waning Crescent
Jun 8
New
Jun 16
First Quarter
Jun 23
Full
Jun 29
Last Quarter

Hourly Weather History & Observations

Time (MDT) Temp. Dew Point Humidity Pressure Visibility Wind Dir Wind Speed Gust Speed Precip Events Conditions
12:53 AM 64.0 °F 28.0 °F 26% 29.84 in 10.0 mi SW 8.1 mph - N/A   Clear
1:53 AM 57.0 °F 33.1 °F 40% 29.85 in 10.0 mi NE 4.6 mph - N/A   Clear
2:53 AM 52.0 °F 30.9 °F 45% 29.86 in 10.0 mi NE 3.5 mph - N/A   Clear
3:53 AM 52.0 °F 30.9 °F 45% 29.86 in 10.0 mi Calm Calm - N/A   Clear
4:53 AM 50.0 °F 32.0 °F 50% 29.89 in 10.0 mi Calm Calm - N/A   Clear
5:53 AM 48.0 °F 34.0 °F 58% 29.92 in 10.0 mi Calm Calm - N/A   Clear
6:53 AM 50.0 °F 34.0 °F 54% 29.94 in 10.0 mi East 4.6 mph - N/A   Clear
7:53 AM 54.0 °F 35.1 °F 49% 29.96 in 10.0 mi Calm Calm - N/A   Clear
8:53 AM 60.1 °F 35.1 °F 39% 29.94 in 10.0 mi Calm Calm - N/A   Clear
9:53 AM 64.9 °F 35.1 °F 33% 29.94 in 10.0 mi Calm Calm - N/A   Clear
10:53 AM 69.1 °F 30.9 °F 24% 29.92 in 10.0 mi Calm Calm - N/A   Clear
11:53 AM 73.0 °F 30.0 °F 20% 29.89 in 10.0 mi Calm Calm - N/A   Clear
12:53 PM 75.9 °F 28.0 °F 17% 29.88 in 10.0 mi North 11.5 mph 17.3 mph N/A   Clear
1:53 PM 77.0 °F 27.0 °F 16% 29.88 in 10.0 mi NNW 6.9 mph - N/A   Clear
2:53 PM 79.0 °F 26.1 °F 14% 29.88 in 10.0 mi NNW 10.4 mph 20.7 mph N/A   Clear
3:53 PM 80.1 °F 25.0 °F 13% 29.87 in 10.0 mi NNW 10.4 mph 21.9 mph N/A   Clear
4:53 PM 80.1 °F 23.0 °F 12% 29.87 in 10.0 mi NNW 16.1 mph 20.7 mph N/A   Clear
5:53 PM 79.0 °F 23.0 °F 13% 29.86 in 10.0 mi NNW 11.5 mph 19.6 mph N/A   Clear
6:53 PM 78.1 °F 25.0 °F 14% 29.86 in 10.0 mi NNW 11.5 mph 19.6 mph N/A   Clear
7:53 PM 73.9 °F 24.1 °F 16% 29.88 in 10.0 mi NNW 10.4 mph - N/A   Clear
8:53 PM 68.0 °F 27.0 °F 21% 29.89 in 10.0 mi Calm Calm - N/A   Clear
9:53 PM 62.1 °F 26.1 °F 25% 29.92 in 10.0 mi SSW 4.6 mph - N/A   Clear
10:53 PM 57.0 °F 27.0 °F 32% 29.94 in 10.0 mi ESE 3.5 mph - N/A   Clear
11:53 PM 55.9 °F 28.0 °F 34% 29.93 in 10.0 mi SSE 4.6 mph - N/A   Clear